FW5912 Weather Reports


time (UTC)temp
F
wind
direction
speed
knots
gust
knots
rain 1hr
in
rain 24hr
in
rain mn
in
humidity
%
barometer
mb
20260506213131 78 129 7.8 13.0 0.00 0.00 0.00 90 1010.3
20260506211611 78 119 10.4 13.9 0.00 0.00 0.00 90 1010.3
20260506204600 79 131 5.2 11.3 0.00 0.00 0.00 90 1010.5
20260506203058 78 137 7.8 13.9 0.00 0.00 0.00 91 1010.3
20260506201609 78 107 8.7 13.9 0.00 0.00 0.00 91 1010.6
20260506200100 78 118 9.6 12.2 0.00 0.00 0.00 90 1010.9
20260506194610 78 106 8.7 12.2 0.00 0.00 0.00 91 1010.9
20260506193055 78 102 9.6 13.0 0.00 0.00 0.00 91 1011.4
20260506191554 78 122 7.8 13.0 0.00 0.00 0.00 91 1011.4
20260506190057 78 107 8.7 12.2 0.00 0.00 0.00 91 1011.7
20260506184609 78 126 4.3 10.4 0.00 0.00 0.00 91 1011.8
20260506183102 78 113 5.2 9.6 0.00 0.00 0.00 91 1011.8
20260506181553 77 94 6.1 9.6 0.00 0.00 0.00 92 1012.0
20260506180056 77 89 6.1 10.4 0.00 0.00 0.00 92 1012.1
20260506174601 77 117 7.0 9.6 0.00 0.00 0.00 91 1012.3
20260506173109 78 115 5.2 7.8 0.00 0.00 0.00 91 1012.4
20260506171610 78 101 6.1 9.6 0.00 0.00 0.00 91 1012.3
20260506170116 78 98 2.6 7.8 0.00 0.00 0.00 91 1012.3
20260506164609 78 129 3.5 7.0 0.00 0.00 0.00 92 1012.3
20260506161600 77 111 5.2 10.4 0.00 0.00 0.00 92 1012.4
20260506160119 77 113 2.6 7.8 0.00 0.00 0.00 92 1011.9
20260506154607 77 84 5.2 10.4 0.00 0.00 0.00 92 1012.1
20260506153057 77 106 7.8 12.2 0.00 0.00 0.00 92 1011.6
20260506151558 77 110 7.0 10.4 0.00 0.00 0.00 92 1011.3
20260506150053 77 125 7.8 11.3 0.00 0.00 0.00 93 1011.3
20260506144607 77 136 8.7 13.0 0.00 0.00 0.00 93 1011.4
20260506143055 77 109 6.1 12.2 0.00 0.00 0.00 93 1011.3
20260506141555 77 105 4.3 10.4 0.00 0.00 0.00 93 1011.3
20260506140053 77 96 7.0 10.4 0.00 0.00 0.00 93 1011.2
20260506134557 77 113 4.3 8.7 0.00 0.00 0.00 93 1011.3
20260506133057 76 96 4.3 7.0 0.00 0.00 0.00 93 1011.4
20260506131556 76 107 2.6 8.7 0.00 0.00 0.00 93 1011.4
20260506130100 76 118 6.1 9.6 0.00 0.00 0.00 93 1011.4
20260506124553 76 123 7.0 10.4 0.00 0.00 0.00 93 1011.3
20260506123056 76 115 3.5 8.7 0.00 0.00 0.00 93 1011.3
20260506121557 76 93 5.2 9.6 0.00 0.00 0.00 93 1011.1
20260506120055 76 129 5.2 8.7 0.00 0.00 0.00 93 1010.9
20260506114556 76 116 2.6 7.0 0.00 0.00 0.00 93 1010.5
20260506113053 76 104 2.6 9.6 0.00 0.00 0.00 93 1010.5
20260506111554 76 118 5.2 9.6 0.00 0.00 0.00 93 1010.7
20260506110054 76 121 5.2 8.7 0.00 0.00 0.00 93 1010.4
20260506104556 76 119 6.1 9.6 0.00 0.00 0.00 93 1010.4
20260506103119 76 131 6.1 8.7 0.00 0.00 0.00 93 1010.3
20260506101556 76 82 4.3 8.7 0.00 0.00 0.00 93 1010.1
20260506100056 76 140 3.5 8.7 0.00 0.00 0.00 93 1010.1
20260506094605 76 146 3.5 8.7 0.00 0.00 0.00 93 1010.0
20260506093103 76 133 3.5 7.8 0.00 0.00 0.00 93 1010.1
20260506091604 76 117 4.3 10.4 0.00 0.00 0.00 93 1010.2
20260506090100 76 119 6.1 7.8 0.00 0.00 0.00 92 1010.3
20260506084613 76 115 6.1 8.7 0.00 0.00 0.00 92 1010.5
20260506083100 76 143 4.3 7.8 0.00 0.00 0.00 92 1010.5
20260506081559 76 145 2.6 7.0 0.00 0.00 0.00 92 1010.6
20260506073103 76 138 3.5 7.8 0.00 0.00 0.00 92 1011.2
20260506071604 76 155 5.2 9.6 0.00 0.00 0.00 92 1011.1
20260506061603 76 150 7.0 11.3 0.00 0.00 0.00 92 1011.1
20260506050110 76 150 8.7 14.8 0.00 0.00 0.00 91 1010.9
20260506044554 76 179 12.2 17.4 0.00 0.00 0.00 91 1011.1
20260506043101 76 123 12.2 16.5 0.00 0.00 0.00 91 1011.0
20260506041554 76 130 11.3 18.2 0.00 0.00 0.00 91 1011.1
20260506040104 76 163 12.2 17.4 0.00 0.00 0.00 91 1011.0
20260506034558 76 144 9.6 16.5 0.00 0.00 0.00 91 1011.1
20260506033053 76 117 10.4 16.5 0.00 0.00 0.00 91 1011.0
20260506031553 76 132 10.4 15.6 0.00 0.00 0.00 91 1011.1
20260506030056 76 215 9.6 15.6 0.00 0.00 0.00 91 1010.9
20260506024559 76 143 11.3 16.5 0.00 0.00 0.00 91 1010.7
20260506023056 76 126 11.3 17.4 0.00 0.00 0.00 91 1010.5
20260506021603 76 140 11.3 18.2 0.00 0.00 0.00 91 1010.3
20260506020059 76 157 9.6 13.9 0.00 0.00 0.00 91 1010.1
20260506014554 76 149 10.4 15.6 0.00 0.00 0.00 91 1009.9
20260506013102 77 170 9.6 15.6 0.00 0.00 0.00 91 1009.6
20260506011603 77 144 9.6 13.9 0.00 0.00 0.00 91 1009.6
20260506010055 77 155 11.3 15.6 0.00 0.00 0.00 90 1009.5
20260506004552 77 144 8.7 13.9 0.00 0.00 0.00 90 1009.4
20260506003053 77 145 9.6 14.8 0.00 0.00 0.00 90 1009.5
20260506001554 77 170 10.4 14.8 0.00 0.00 0.00 89 1009.4
20260506000055 77 162 9.6 13.9 0.00 0.00 0.00 89 1009.4
20260505234606 78 142 9.6 16.5 0.00 0.00 0.00 88 1009.4
20260505233053 78 159 9.6 16.5 0.00 0.00 0.00 88 1009.3
20260505231606 78 157 10.4 14.8 0.00 0.00 0.00 87 1009.5
20260505230055 78 132 10.4 15.6 0.00 0.00 0.00 87 1009.6
20260505224556 79 151 8.7 14.8 0.00 0.00 0.00 87 1009.9
20260505223104 79 150 8.7 13.9 0.00 0.00 0.00 86 1009.8
20260505221559 79 144 9.6 13.0 0.00 0.00 0.00 85 1009.9
20260505220055 79 162 7.0 13.0 0.00 0.00 0.00 86 1010.0
20260505214613 80 159 7.8 13.0 0.00 0.00 0.00 85 1010.1